East Quogue, NY

2:42 PM EST on February 23, 2017 (GMT -0500)
The Gabreski

Weather History for KFOK - March, 2014

Change the Weather History Date:

Sunday, March 30, 2014

  Actual Average Record
Temperature  
Mean Temperature 49 °F -  
Max Temperature 59 °F 49 °F 66 °F (1998)
Min Temperature 39 °F 32 °F 17 °F (2016)
Degree Days  
Heating Degree Days 16    
Moisture  
Dew Point 48 °F    
Average Humidity 94    
Maximum Humidity 100    
Minimum Humidity 86    
Precipitation  
Precipitation 2.35 in - - ()
Sea Level Pressure  
Sea Level Pressure 29.57 in    
Wind  
Wind Speed 12 mph (East)    
Max Wind Speed 20 mph    
Max Gust Speed 34 mph    
Visibility 3 miles    
Events Fog , Rain    
Averages and records for this station are not official NWS values.
T = Trace of Precipitation, MM = Missing Value Source: NWS Daily Summary

Daily Weather History Graph

Daily Weather History Graph

Search for Another Location

Airport or City:

Trip Planner

Search our weather history database for the weather conditions in past years. The results will help you decide how hot, cold, wet, or windy it might be!

Date:

Astronomy

Mar. 30, 2014 Rise Set
Actual Time 6:37 AM EDT 7:13 PM EDT
Civil Twilight 6:09 AM EDT 7:40 PM EDT
Nautical Twilight 5:37 AM EDT 8:13 PM EDT
Astronomical Twilight 5:03 AM EDT 8:47 PM EDT
Moon 6:21 AM EDT (3/30) 7:22 PM EDT (3/30)
Length of Visible Light 13h 31m
Length of Day
12h 35m
Waning Crescent, 0% of the Moon is Illuminated
Mar 30
Waning Crescent
Mar 30
New
Apr 7
First Quarter
Apr 15
Full
Apr 22
Last Quarter

Hourly Weather History & Observations

Time (EDT) Temp. Windchill Dew Point Humidity Pressure Visibility Wind Dir Wind Speed Gust Speed Precip Events Conditions
12:02 AM 48.2 °F - 46.4 °F 93% 29.77 in 2.5 mi ESE 10.4 mph 17.3 mph 0.02 in Rain Rain
12:17 AM 48.2 °F - 48.2 °F 100% 29.75 in 1.5 mi ESE 9.2 mph 17.3 mph 0.05 in Rain Rain
12:39 AM 51.8 °F - 51.8 °F 100% 29.74 in 2.0 mi SE 15.0 mph 27.6 mph 0.11 in Rain Rain
12:53 AM 52.0 °F - 51.1 °F 97% 29.73 in 2.0 mi SE 13.8 mph 25.3 mph 0.16 in Rain Rain
1:24 AM 51.8 °F - 51.8 °F 100% 29.69 in 3.0 mi SE 12.7 mph 25.3 mph 0.12 in Rain Rain
1:31 AM 51.8 °F - 50.0 °F 94% 29.68 in 1.8 mi ESE 11.5 mph 23.0 mph 0.19 in Rain Heavy Rain
1:53 AM 52.0 °F - 50.0 °F 93% 29.65 in 1.8 mi ESE 16.1 mph 29.9 mph 0.35 in Rain Heavy Rain
2:01 AM 51.8 °F - 50.0 °F 94% 29.65 in 3.0 mi SE 13.8 mph 31.1 mph 0.01 in Rain Light Rain
2:16 AM 51.8 °F - 50.0 °F 94% 29.65 in 1.8 mi SSE 18.4 mph 32.2 mph 0.08 in Rain Heavy Rain
2:32 AM 51.8 °F - 51.8 °F 100% 29.63 in 3.0 mi SE 13.8 mph 29.9 mph 0.17 in Rain Light Rain
2:53 AM 53.1 °F - 51.1 °F 93% 29.62 in 4.0 mi SE 17.3 mph 29.9 mph 0.21 in Rain Light Rain
3:04 AM 53.6 °F - 51.8 °F 94% 29.60 in 2.5 mi SE 17.3 mph 29.9 mph 0.06 in Rain Rain
3:17 AM 51.8 °F - 51.8 °F 100% 29.60 in 3.0 mi SSE 18.4 mph 33.4 mph 0.09 in Rain Rain
3:34 AM 53.6 °F - 51.8 °F 94% 29.57 in 2.5 mi SE 18.4 mph 31.1 mph 0.10 in Rain Light Rain
3:53 AM 53.1 °F - 52.0 °F 96% 29.57 in 3.0 mi SE 18.4 mph 31.1 mph 0.14 in Rain Light Rain
4:05 AM 53.6 °F - 51.8 °F 94% 29.60 in 2.5 mi SSE 15.0 mph 27.6 mph 0.02 in Rain Light Rain
4:11 AM 51.8 °F - 51.8 °F 100% 29.60 in 3.0 mi WSW 13.8 mph 28.8 mph 0.03 in Rain Light Rain
4:22 AM 53.6 °F - 53.6 °F 100% 29.61 in 2.0 mi WSW 17.3 mph 34.5 mph 0.12 in Rain Heavy Rain
4:30 AM 53.6 °F - 53.6 °F 100% 29.60 in 1.8 mi South 11.5 mph - 0.21 in Rain Heavy Rain
4:39 AM 55.4 °F - 53.6 °F 94% 29.58 in 1.8 mi South 8.1 mph 19.6 mph 0.28 in Rain Heavy Rain
4:43 AM 55.4 °F - 53.6 °F 94% 29.58 in 2.5 mi South 4.6 mph - 0.30 in Rain Heavy Rain
4:53 AM 55.0 °F - 53.1 °F 93% 29.58 in 2.0 mi South 10.4 mph - 0.37 in Rain Heavy Rain
5:03 AM 57.2 °F - 55.4 °F 94% 29.57 in 1.8 mi South 10.4 mph 19.6 mph 0.09 in Rain Heavy Rain
5:16 AM 57.2 °F - 55.4 °F 94% 29.58 in 2.0 mi South 9.2 mph 18.4 mph 0.20 in Rain Heavy Rain
5:26 AM 57.2 °F - 55.4 °F 94% 29.57 in 1.8 mi South 8.1 mph 18.4 mph 0.31 in Rain Heavy Rain
5:33 AM 55.4 °F - 55.4 °F 100% 29.57 in 2.5 mi South 8.1 mph - 0.33 in Rain Rain
5:53 AM 55.0 °F - 53.1 °F 93% 29.57 in 2.0 mi South 8.1 mph 16.1 mph 0.44 in Rain Heavy Rain
6:07 AM 57.2 °F - 55.4 °F 94% 29.57 in 1.8 mi South 9.2 mph - 0.12 in Rain Heavy Rain
6:37 AM 57.2 °F - 55.4 °F 94% 29.57 in 3.0 mi SSE 5.8 mph - 0.39 in Rain Rain
6:48 AM 57.2 °F - 55.4 °F 94% 29.56 in 2.5 mi SSE 5.8 mph - 0.46 in Rain Heavy Rain
6:49 AM 57.9 °F - 55.9 °F 93% 29.56 in 2.5 mi SSE 6.9 mph - 0.46 in Rain Heavy Rain
7:01 AM 59.0 °F - 57.2 °F 94% 29.55 in 1.8 mi ESE 6.9 mph - 0.11 in Rain Heavy Rain
7:09 AM 59.0 °F - 57.2 °F 94% 29.54 in 3.0 mi East 6.9 mph - 0.13 in Rain Rain
7:24 AM 57.2 °F - 57.2 °F 100% 29.54 in 2.0 mi ESE 8.1 mph - 0.16 in Rain Light Rain
7:34 AM 55.4 °F - 55.4 °F 100% 29.54 in 3.0 mi East 6.9 mph - 0.16 in   Overcast
7:46 AM 55.4 °F - 53.6 °F 94% 29.54 in 2.5 mi East 6.9 mph - 0.16 in   Overcast
7:53 AM 55.9 °F - 54.0 °F 93% 29.53 in 3.0 mi ESE 9.2 mph - 0.16 in   Overcast
8:02 AM 57.2 °F - 55.4 °F 94% 29.53 in 9.0 mi ESE 8.1 mph - N/A   Overcast
8:31 AM 55.4 °F - 55.4 °F 100% 29.53 in 10.0 mi ESE 8.1 mph - N/A   Overcast
8:53 AM 55.9 °F - 54.0 °F 93% 29.53 in 2.0 mi East 6.9 mph - N/A   Overcast
9:00 AM 55.4 °F - 53.6 °F 94% 29.52 in 1.0 mi East 5.8 mph - N/A   Overcast
9:13 AM 55.4 °F - 53.6 °F 94% 29.51 in 0.8 mi East 5.8 mph - N/A   Overcast
9:53 AM 55.9 °F - 55.0 °F 97% 29.52 in 0.5 mi East 8.1 mph - 0.01 in Fog Fog
10:21 AM 51.8 °F - 50.0 °F 94% 29.51 in 1.0 mi NNW 9.2 mph - N/A   Overcast
10:53 AM 50.0 °F - 48.0 °F 93% 29.52 in 1.0 mi North 9.2 mph - N/A   Overcast
11:53 AM 50.0 °F - 48.0 °F 93% 29.51 in 1.5 mi North 11.5 mph - N/A   Overcast
12:03 PM 48.2 °F - 46.4 °F 93% 29.51 in 2.0 mi North 11.5 mph - N/A   Overcast
12:16 PM 48.2 °F - 46.4 °F 93% 29.50 in 1.8 mi North 11.5 mph - N/A   Overcast
12:53 PM 48.9 °F - 46.9 °F 93% 29.50 in 1.2 mi North 11.5 mph - N/A   Overcast
1:53 PM 48.9 °F - 46.9 °F 93% 29.49 in 1.5 mi North 16.1 mph 23.0 mph 0.00 in Rain Light Rain
2:53 PM 48.0 °F - 45.0 °F 89% 29.49 in 1.2 mi North 13.8 mph 23.0 mph 0.01 in Rain Light Rain
3:18 PM 48.2 °F - 44.6 °F 87% 29.49 in 2.5 mi NNE 19.6 mph 25.3 mph 0.00 in Rain Light Rain
3:29 PM 48.2 °F - 46.4 °F 93% 29.50 in 3.0 mi NNE 10.4 mph 19.6 mph 0.00 in Rain Light Rain
3:38 PM 48.2 °F - 44.6 °F 87% 29.49 in 2.0 mi NNE 15.0 mph 20.7 mph 0.01 in Rain Light Rain
3:53 PM 46.9 °F - 45.0 °F 93% 29.49 in 2.0 mi NNE 16.1 mph 23.0 mph 0.01 in Rain Light Rain
4:09 PM 46.4 °F 40.1 °F 44.6 °F 93% 29.48 in 4.0 mi NNE 15.0 mph 21.9 mph 0.00 in Rain Light Rain
4:34 PM 46.4 °F 39.8 °F 44.6 °F 93% 29.48 in 2.5 mi NNE 16.1 mph 24.2 mph 0.00 in   Overcast
4:53 PM 45.0 °F 38.2 °F 43.0 °F 93% 29.48 in 1.8 mi NNE 15.0 mph 20.7 mph 0.00 in   Overcast
5:38 PM 44.6 °F 38.1 °F 42.8 °F 93% 29.50 in 2.0 mi NNE 13.8 mph 25.3 mph 0.01 in Rain Light Rain
5:49 PM 44.6 °F 38.1 °F 42.8 °F 93% 29.50 in 1.8 mi NNE 13.8 mph - 0.01 in Rain Light Rain
5:53 PM 44.1 °F 37.4 °F 42.1 °F 93% 29.50 in 2.0 mi NNE 13.8 mph - 0.01 in Rain Light Rain
6:02 PM 44.6 °F 38.1 °F 41.0 °F 87% 29.51 in 1.8 mi NNE 13.8 mph 20.7 mph 0.00 in Rain Light Rain
6:13 PM 44.6 °F 38.4 °F 41.0 °F 87% 29.52 in 3.0 mi NNE 12.7 mph 19.6 mph 0.00 in Rain Light Rain
6:37 PM 42.8 °F 35.8 °F 41.0 °F 93% 29.52 in 6.0 mi NNE 13.8 mph 26.5 mph 0.00 in   Overcast
6:53 PM 43.0 °F 35.1 °F 39.9 °F 89% 29.53 in 5.0 mi NNE 17.3 mph 25.3 mph 0.00 in   Overcast
7:41 PM 42.8 °F 36.6 °F 39.2 °F 87% 29.56 in 2.5 mi NNE 11.5 mph - 0.01 in Rain Light Rain
7:48 PM 42.8 °F 36.2 °F 39.2 °F 87% 29.56 in 3.0 mi North 12.7 mph - 0.01 in Rain Light Rain
7:53 PM 42.1 °F 35.2 °F 39.0 °F 89% 29.56 in 3.0 mi NNE 12.7 mph - 0.01 in Rain Light Rain
8:53 PM 41.0 °F 32.5 °F 37.9 °F 89% 29.59 in 5.0 mi NNE 17.3 mph 24.2 mph 0.01 in Rain Light Rain
9:12 PM 41.0 °F 32.5 °F 37.4 °F 87% 29.59 in 5.0 mi NNE 17.3 mph 24.2 mph N/A   Overcast
9:24 PM 41.0 °F 31.9 °F 37.4 °F 87% 29.59 in 4.0 mi NNE 19.6 mph 27.6 mph N/A   Overcast
9:53 PM 39.9 °F 30.5 °F 37.9 °F 93% 29.61 in 5.0 mi NNE 19.6 mph 27.6 mph N/A   Overcast
10:05 PM 39.2 °F 29.6 °F 37.4 °F 93% 29.61 in 6.0 mi NNE 19.6 mph 27.6 mph N/A   Overcast
10:35 PM 39.2 °F 30.8 °F 37.4 °F 93% 29.61 in 10.0 mi North 15.0 mph 21.9 mph N/A   Overcast
10:53 PM 39.9 °F 32.5 °F 37.0 °F 89% 29.62 in 10.0 mi North 12.7 mph 20.7 mph N/A   Overcast
11:01 PM 39.2 °F 30.8 °F 37.4 °F 93% 29.62 in 10.0 mi North 15.0 mph 21.9 mph N/A   Overcast
11:53 PM 39.9 °F 33.4 °F 36.0 °F 86% 29.65 in 10.0 mi North 10.4 mph 19.6 mph N/A   Overcast